Location: Wildlife_Club
(35.6000°N, 81.4330°W)
Time: 11:18:51
(UTC-04:00)

Iridium 56 - Visible Passes

Search period start: 26 May 2018 00:00
Search period end: 05 June 2018 00:00
Orbit: 776 x 779 km, 86.4° (Epoch: 26 May)

Date Brightness Start Highest point End Pass type
(mag) Time Alt. Az. Time Alt. Az. Time Alt. Az.
26 May 7.8 00:25:09 15° W 00:26:17 16° WNW 00:29:22 10° NW visible
26 May 6.6 22:10:56 24° ESE 22:11:58 26° E 22:16:14 10° NNE visible
26 May 7.0 23:51:22 27° WSW 23:52:31 29° W 23:57:02 10° NNW visible
27 May 7.3 21:37:08 12° E 21:38:44 14° E 21:41:16 10° NE visible
27 May 6.0 23:17:35 44° SW 23:18:52 56° W 23:24:00 10° N visible
28 May 5.4 22:43:47 46° SSE 22:45:20 75° E 22:50:33 10° N visible
29 May 8.2 00:26:18 10° WNW 00:26:35 10° WNW 00:26:54 10° WNW visible
29 May 6.1 22:09:56 28° SE 22:11:55 38° E 22:16:43 10° NNE visible
29 May 7.6 23:50:23 15° WSW 23:52:44 20° W 23:56:32 10° NNW visible
30 May 6.9 21:36:05 15° ESE 21:38:37 20° E 21:42:23 10° NE visible
30 May 6.7 23:16:31 24° SW 23:19:00 38° W 23:23:51 10° NNW visible
31 May 7.5 21:04:52 10° E 21:05:27 10° ENE 21:06:02 10° ENE visible
31 May 5.6 22:42:39 28° SSW 22:45:24 74° W 22:50:38 10° N visible
01 Jun 5.6 22:08:44 23° SSE 22:11:55 58° E 22:17:02 10° N visible
01 Jun 8.1 23:50:28 10° WSW 23:53:00 14° WNW 23:55:32 10° NW visible
02 Jun 6.4 21:34:48 13° SE 21:38:34 30° E 21:43:03 10° NNE visible
02 Jun 7.4 23:15:15 11° SW 23:19:12 26° W 23:23:30 10° NNW visible
03 Jun 7.2 21:02:16 10° ESE 21:05:18 16° E 21:08:21 10° NE visible
03 Jun 6.3 22:41:16 14° SSW 22:45:31 49° W 22:50:34 10° N visible
04 Jun 5.5 22:07:16 13° S 22:11:57 86° E 22:17:12 10° N visible
